This is the latest recevied weather packets stored in our database for station/object OK1FET-14. If no packets are shown the sender has not sent any weather packets the latest 10 day(s).
| Time | Temp. | Humidity | Pressure | Rain* | Wind** | Luminosity | Snow |
|---|---|---|---|---|---|---|---|
| 1788624940 | 20° C | 43% | 1021.4 hPa | - | - | - | - |
| 1788624940 | 20° C | 43% | 1021.4 hPa | - | - | - | - |
| 1788624659 | 21.11° C | 41% | 1021.6 hPa | - | - | - | - |
| 1788624659 | 21.11° C | 41% | 1021.6 hPa | - | - | - | - |
| 1788624659 | 21.11° C | 41% | 1021.6 hPa | - | - | - | - |
| 1788624378 | 20.56° C | 42% | 1021.5 hPa | - | - | - | - |
| 1788624378 | 20.56° C | 42% | 1021.5 hPa | - | - | - | - |
| 1788624378 | 20.56° C | 42% | 1021.5 hPa | - | - | - | - |
| 1788624097 | 21.11° C | 41% | 1021.4 hPa | - | - | - | - |
| 1788624097 | 21.11° C | 41% | 1021.4 hPa | - | - | - | - |
| 1788624097 | 21.11° C | 41% | 1021.4 hPa | - | - | - | - |
| 1788623816 | 20° C | 44% | 1021.5 hPa | - | - | - | - |
| 1788623816 | 20° C | 44% | 1021.5 hPa | - | - | - | - |
| 1788623536 | 20.56° C | 42% | 1021.3 hPa | - | - | - | - |
| 1788623535 | 20.56° C | 42% | 1021.3 hPa | - | - | - | - |
| 1788623535 | 20.56° C | 42% | 1021.3 hPa | - | - | - | - |
| 1788623255 | 20.56° C | 41% | 1021.5 hPa | - | - | - | - |
| 1788623255 | 20.56° C | 41% | 1021.5 hPa | - | - | - | - |
| 1788622974 | 22.22° C | 40% | 1021.4 hPa | - | - | - | - |
| 1788622974 | 22.22° C | 40% | 1021.4 hPa | - | - | - | - |
| 1788622693 | 21.67° C | 40% | 1021.2 hPa | - | - | - | - |
| 1788622693 | 21.67° C | 40% | 1021.2 hPa | - | - | - | - |
| 1788622438 | 22.78° C | 38% | 1021.4 hPa | - | - | - | - |
| 1788622438 | 22.78° C | 38% | 1021.4 hPa | - | - | - | - |
| 1788622438 | 22.78° C | 38% | 1021.4 hPa | - | - | - | - |
* Rain since midnight (hover to see other rain measurements)
** Current wind speed in m/s (hover to see current wind gust speed)